Regional Weather Roundup
Issued by NWS

Home | Current Version | Previous Version | Text Only | Print | Product List | Glossary On
Versions: 1 2 3 4 5 6 7 8 9 10 11 12 13 14 15 16 17 18 19 20 21 22 23 24 25 26 27 28 29 30 31 32 33 34 35 36 37 38 39 40 41 42 43 44 45 46 47 48 49 50
000
ASUS43 KMKX 201110
RWRWI

WISCONSIN REGIONAL WEATHER ROUNDUP
NATIONAL WEATHER SERVICE MILWAUKEE/SULLIVAN WI
500 AM CST MON NOV 20 2017

NOTE: "FAIR" INDICATES FEW OR NO CLOUDS BELOW 12,000 FEET WITH NO
SIGNIFICANT WEATHER AND/OR OBSTRUCTIONS TO VISIBILITY.

WIZ001-002-006>008-014>016-023>028-201200-
NORTHWEST WISCONSIN

CITY           SKY/WX    TMP DP  RH WIND       PRES   REMARKS
SUPERIOR ARPT  CLOUDY    17  16  93 CALM      29.70F
ASHLAND        CLOUDY    19  15  84 CALM      29.71F
HAYWARD        CLOUDY    19  15  84 CALM      29.70F
SIREN          CLOUDY    22  21  94 CALM      29.69F
CUMBERLAND     CLOUDY    23  21  93 CALM      29.70F
RICE LAKE      CLOUDY    23  21  93 CALM      29.73S
CHETEK         CLOUDY    22  21  95 CALM      29.72F
LADYSMITH      CLOUDY    24  22  93 E3        29.74F
EAU CLAIRE     CLOUDY    20  19  96 CALM      29.73F
MENOMONIE      CLOUDY    29  26  89 SE3       29.73F
NEW RICHMOND   CLOUDY    29  25  83 S6        29.71F WCI  23
OSCEOLA        CLOUDY    31  27  84 SE5       29.73F WCI  26
$$

WIZ003>005-009-010-017-018-201200-
NORTH CENTRAL WISCONSIN

CITY           SKY/WX    TMP DP  RH WIND       PRES   REMARKS
MANITOWISH WTR CLOUDY    13  13 100 CALM      29.72S
ARBOR VITAE    CLOUDY    19  17  90 CALM      29.72F
WOODRUFF       CLOUDY    19  17  90 CALM      29.72F
RHINELANDER    CLOUDY   N/A N/A N/A CALM      29.74F
EAGLE RIVER    CLOUDY    13  11  95 CALM      29.73S
LAND O LAKES   CLOUDY    11   9  91 CALM      29.75S
PHILLIPS       CLOUDY    24  23  95 CALM      29.71F
TOMAHAWK       CLOUDY    16  14  92 CALM      29.74F
MEDFORD        CLOUDY    25  22  89 S8        29.73F WCI  16
MERRILL        CLOUDY    16  15  93 CALM      29.76F
$$

WIZ029-030-035-036-043>047-201200-
CENTRAL WISCONSIN

CITY           SKY/WX    TMP DP  RH WIND       PRES   REMARKS
WAUSAU         CLOUDY    22  20  92 E3        29.76F
MOSINEE        CLOUDY    23  21  93 S6        29.78F WCI  16
MARSHFIELD     CLOUDY    23  19  85 S8        29.75F WCI  14
STEVENS POINT  CLOUDY    21  20  95 S3        29.80F
WAUPACA        CLEAR     23  19  85 CALM      29.82F
WAUTOMA        CLEAR     16  13  88 CALM      29.84F
WISC RAPIDS    CLOUDY    22  20  92 S3        29.81F
CAMP DOUGLAS   CLOUDY   N/A N/A N/A CALM      29.82F
$$

WIZ011>013-019>022-031-037>040-048>050-201200-
NORTHEAST WISCONSIN

CITY           SKY/WX    TMP DP  RH WIND       PRES   REMARKS
ANTIGO         CLOUDY    22  20  93 CALM      29.76F
SHAWANO        PTCLDY    25  21  85 CALM      29.80F
OCONTO         PTCLDY    19  18  93 CALM      29.82F
STURGEON BAY   CLEAR     26  21  81 S3        29.83F
GREEN BAY      CLOUDY    30  25  81 SW6       29.84F WCI  24
MANITOWOC      CLEAR     33  24  69 SW12      29.85F WCI  24
APPLETON       CLEAR     28  21  74 S8        29.81F WCI  20
CLINTONVILLE   CLOUDY    23  19  86 S3        29.81F
OSHKOSH        CLEAR     28  23  81 S9        29.84F WCI  19
$$

WIZ032>034-041-042-053>061-201200-
SOUTHWEST WISCONSIN

CITY           SKY/WX    TMP DP  RH WIND       PRES   REMARKS
LA CROSSE      CLOUDY    34  27  75 S6        29.80F WCI  29
SPARTA         CLOUDY    21  20  95 CALM      29.82S
VIROQUA        CLOUDY    31  27  86 S5        29.80F WCI  26
BOSCOBEL       CLEAR     24  21  88 CALM      29.87S
PRAIRIE DU CHI CLEAR     31  24  73 CALM      29.86R
PLATTEVILLE    CLEAR     29  27  93 SE8       29.87F WCI  21
$$

WIZ056-057-062-063-064-067-068-201200-
SOUTH CENTRAL WISCONSIN

CITY           SKY/WX    TMP DP  RH WIND       PRES   REMARKS
REEDSBURG      CLEAR     30  24  79 S6        29.84F WCI  24
BARABOO/DELLS  CLEAR     32  24  73 SW3       29.82F
LONE ROCK      CLEAR     25  22  88 CALM      29.87F
MINERAL POINT  CLEAR     32  30  93 S8        29.86F WCI  25
MADISON        CLEAR     33  25  72 S7        29.87F WCI  27
MIDDLETON      CLEAR     32  26  77 SW5       29.88R WCI  28
WATERTOWN      CLEAR     27  25  92 S6        29.88F WCI  20
MONROE         CLEAR     30  25  80 S14       29.88F WCI  20
JANESVILLE     CLEAR     32  27  80 S7        29.90F WCI  26
$$

WIZ051-052-058>065-066-070>072-201200-
SOUTHEAST WISCONSIN

CITY           SKY/WX    TMP DP  RH WIND       PRES   REMARKS
MILWAUKEE      PTCLDY    33  24  69 SW15      29.90F WCI  23
WAUKESHA       CLEAR     30  23  74 SW7       29.90S WCI  23
MILWAUKEE/TIMM CLEAR     32  23  69 SW12      29.91S WCI  23
RACINE         CLEAR     33  24  69 SW12G22   29.93F WCI  24
BURLINGTON     CLEAR     32  29  88 SW13      29.90F WCI  23
KENOSHA        CLEAR     32  23  69 SW13      29.92F WCI  22
FOND DU LAC    CLEAR     31  22  69 SW13      29.85F WCI  21
SHEBOYGAN      CLEAR     30  24  78 SW8       29.86F WCI  22
WEST BEND      CLEAR     32  23  69 SW6       29.88S WCI  26
JUNEAU         CLEAR     28  24  82 S8        29.88F WCI  20
$$

LSZ147-162-201200-
LAKE SUPERIOR

STATION/POSITION TIME  TEMP    WIND        PRES    WAVE
                       AIR SEA DIR/SP/G            HT/PER
                 (UTC) (F)     (DEG/KT/KT) (MB)    (FT/S)
DEVILS ISLAND    1100   30     150/  5/  7 1007.0F
SAXON HARBOR     1040   24      CALM  /  2 1006.4F
$$

LMZ867-665-643>646-201200-
LAKE MICHIGAN

STATION/POSITION TIME  TEMP    WIND        PRES    WAVE
                       AIR SEA DIR/SP/G            HT/PER
                 (UTC) (F)     (DEG/KT/KT) (MB)    (FT/S)
N MID LAKE BUOY  1050   36 48  250/  8/ 12 1011.3F   2/ 5
NORTHPORT PIER   1040   30      CALM  /  5 1010.2F
KEWAUNEE LAKESHO 1048   30     280/  5/  9 1009.7F
SHEBOYGAN LAKESH 1100   34     240/ 16/ 19 1011.4F
PORT WASHINGTON  1040   35     250/ 11/ 16 1012.9F
MILWAUKEE LAKESH 1050   34     240/ 14/ 16   N/A
S MID LAKE BUOY  0950   42 49  270/ 23/ 27 1014.0F   5/ 6
KENOSHA   LAKESH 1100   34     230/ 14/ 19 1013.5
$$

TC  - TEMPERATURE IN CELSIUS
VSB - VISIBILITY IN STATUTE MILES
WCI - WIND CHILL INDEX
HX  - HEAT INDEX





USA.gov is the U.S. government's official web portal to all federal, state and local government web resources and services.